Weather History for Thermopolis, WY

Change the Weather History Date:

Saturday, November 3, 2012

  Actual Average (KWRL) Record (KWRL)
Temperature  
Mean Temperature 37 °F 38 °F  
Max Temperature 44 °F 52 °F 68 °F (1962)
Min Temperature 32 °F 24 °F -16 °F (1991)
Degree Days  
Heating Degree Days 28 27  
Month to date heating degree days 80  
Since 1 July heating degree days 942  
Cooling Degree Days 0 0  
Month to date cooling degree days 0  
Year to date cooling degree days 535  
Moisture  
Dew Point 21 °F    
Average Humidity 51    
Maximum Humidity 80    
Minimum Humidity 27    
Precipitation  
Precipitation 0.00 in 0.01 in 0.18 in (1960)
Month to date precipitation 0.04  
Year to date precipitation 7.03  
Sea Level Pressure  
Sea Level Pressure 30.25 in    
Wind  
Wind Speed 7 mph ()    
Max Wind Speed 14 mph    
Max Gust Speed 18 mph    
Visibility 10.0 miles    
Events      
T = Trace of Precipitation, MM = Missing Value Source: Averaged Metar Reports

Daily Weather History Graph

Daily Weather History Graph

Search for Another Location

Airport:

Trip Planner

Search our weather history database for the weather conditions in past years. The results will help you decide how hot, cold, wet, or windy it might be!

Date:

Astronomy

Nov. 03, 2012 Rise Set
Actual Time 7:51 AM MDT 6:00 PM MDT
Civil Twilight 7:21 AM MDT 6:30 PM MDT
Nautical Twilight 6:47 AM MDT 7:04 PM MDT
Astronomical Twilight 6:14 AM MDT 7:37 PM MDT
Moon 9:42 PM MDT (11/3) 12:01 PM MDT (11/3)
Length of Visible Light 11h 09m
Length of Day
10h 09m
Waning Gibbous, 80% of the Moon is Illuminated
Nov 3
Waning Gibbous
Nov 6
Last Quarter
Nov 13
New
Nov 20
First Quarter
Nov 28
Full

Hourly Weather History & Observations

Time (MDT) Temp. Windchill Dew Point Humidity Pressure Visibility Wind Dir Wind Speed Gust Speed Precip Events Conditions
12:15 AM 35.6 °F 31.7 °F 21.2 °F 56% 30.26 in 10.0 mi SSE 4.6 mph - N/A   Clear
12:35 AM 35.6 °F 30.7 °F 21.2 °F 56% 30.26 in 10.0 mi SSE 5.8 mph - N/A   Clear
1:15 AM 35.6 °F 29.2 °F 21.2 °F 56% 30.26 in 10.0 mi ESE 8.1 mph - N/A   Clear
1:35 AM 35.6 °F 28.6 °F 21.2 °F 56% 30.25 in 10.0 mi SE 9.2 mph - N/A   Clear
1:55 AM 35.6 °F 27.5 °F 21.2 °F 56% 30.25 in 10.0 mi SE 11.5 mph - N/A   Clear
2:15 AM 35.6 °F 27.5 °F 21.2 °F 56% 30.24 in 10.0 mi SE 11.5 mph - N/A   Clear
2:35 AM 33.8 °F 27.7 °F 23.0 °F 65% 30.24 in 10.0 mi SSE 6.9 mph - N/A   Clear
2:55 AM 33.8 °F 25.8 °F 23.0 °F 65% 30.24 in 10.0 mi SE 10.4 mph 16.1 mph N/A   Clear
3:15 AM 33.8 °F 27.7 °F 23.0 °F 65% 30.24 in 10.0 mi SSE 6.9 mph - N/A   Clear
3:35 AM 33.8 °F 24.8 °F 24.8 °F 70% 30.24 in 10.0 mi ESE 12.7 mph - N/A   Scattered Clouds
3:55 AM 33.8 °F 24.3 °F 24.8 °F 70% 30.23 in 10.0 mi ESE 13.8 mph - N/A   Scattered Clouds
4:15 AM 33.8 °F 24.3 °F 24.8 °F 70% 30.23 in 10.0 mi ESE 13.8 mph 18.4 mph N/A   Scattered Clouds
4:35 AM 33.8 °F 26.4 °F 24.8 °F 70% 30.23 in 10.0 mi SE 9.2 mph - N/A   Clear
4:55 AM 33.8 °F 26.4 °F 24.8 °F 70% 30.23 in 10.0 mi SE 9.2 mph - N/A   Scattered Clouds
5:15 AM 33.8 °F 27.0 °F 24.8 °F 70% 30.23 in 10.0 mi ESE 8.1 mph - N/A   Scattered Clouds
5:35 AM 33.8 °F 27.7 °F 26.6 °F 75% 30.23 in 10.0 mi ESE 6.9 mph - N/A   Clear
5:55 AM 33.8 °F 25.8 °F 26.6 °F 75% 30.23 in 10.0 mi ESE 10.4 mph - N/A   Clear
6:15 AM 32.0 °F 25.6 °F 26.6 °F 80% 30.24 in 10.0 mi ESE 6.9 mph - N/A   Clear
6:35 AM 32.0 °F 25.6 °F 26.6 °F 80% 30.23 in 10.0 mi SE 6.9 mph - N/A   Clear
6:55 AM 33.8 °F 27.7 °F 26.6 °F 75% 30.24 in 10.0 mi ESE 6.9 mph - N/A   Clear
7:15 AM 33.8 °F 28.6 °F 24.8 °F 70% 30.24 in 10.0 mi SE 5.8 mph - N/A   Clear
7:35 AM 35.6 °F 30.7 °F 23.0 °F 60% 30.24 in 10.0 mi SE 5.8 mph - N/A   Clear
7:55 AM 33.8 °F 29.6 °F 23.0 °F 65% 30.25 in 10.0 mi SE 4.6 mph - N/A   Clear
8:15 AM 33.8 °F 29.6 °F 23.0 °F 65% 30.25 in 10.0 mi SE 4.6 mph - N/A   Clear
8:35 AM 33.8 °F 30.8 °F 23.0 °F 65% 30.26 in 10.0 mi SSE 3.5 mph - N/A   Clear
8:55 AM 33.8 °F 29.6 °F 23.0 °F 65% 30.26 in 10.0 mi SE 4.6 mph - N/A   Clear
9:15 AM 33.8 °F 30.8 °F 24.8 °F 70% 30.27 in 10.0 mi SSE 3.5 mph - N/A   Clear
9:35 AM 35.6 °F 31.7 °F 24.8 °F 65% 30.27 in 10.0 mi SSE 4.6 mph - N/A   Clear
10:15 AM 35.6 °F 32.8 °F 24.8 °F 65% 30.27 in 10.0 mi SSE 3.5 mph - N/A   Clear
10:35 AM 35.6 °F 30.7 °F 26.6 °F 70% 30.27 in 10.0 mi SE 5.8 mph - N/A   Clear
10:55 AM 37.4 °F 33.8 °F 26.6 °F 65% 30.28 in 10.0 mi SSE 4.6 mph - N/A   Clear
11:15 AM 37.4 °F 33.8 °F 24.8 °F 60% 30.28 in 10.0 mi SSE 4.6 mph - N/A   Clear
11:35 AM 37.4 °F 32.1 °F 24.8 °F 60% 30.28 in 10.0 mi SE 6.9 mph - N/A   Clear
11:55 AM 37.4 °F 31.4 °F 24.8 °F 60% 30.28 in 10.0 mi SE 8.1 mph - N/A   Clear
12:15 PM 37.4 °F 29.8 °F 23.0 °F 56% 30.27 in 10.0 mi SE 11.5 mph - N/A   Clear
12:35 PM 37.4 °F 29.8 °F 23.0 °F 56% 30.27 in 10.0 mi SE 11.5 mph - N/A   Clear
1:15 PM 41.0 °F 34.7 °F 21.2 °F 45% 30.26 in 10.0 mi SE 10.4 mph 16.1 mph N/A   Clear
1:35 PM 41.0 °F 34.3 °F 19.4 °F 42% 30.26 in 10.0 mi SE 11.5 mph - N/A   Clear
1:55 PM 41.0 °F 34.3 °F 17.6 °F 39% 30.26 in 10.0 mi SE 11.5 mph - N/A   Clear
2:15 PM 42.8 °F 36.6 °F 19.4 °F 39% 30.25 in 10.0 mi SE 11.5 mph - N/A   Clear
2:35 PM 42.8 °F 37.0 °F 19.4 °F 39% 30.24 in 10.0 mi SE 10.4 mph - N/A   Clear
2:55 PM 42.8 °F 37.5 °F 19.4 °F 39% 30.24 in 10.0 mi SSE 9.2 mph - N/A   Clear
3:15 PM 42.8 °F 37.5 °F 19.4 °F 39% 30.24 in 10.0 mi SE 9.2 mph - N/A   Clear
3:35 PM 42.8 °F 37.5 °F 19.4 °F 39% 30.24 in 10.0 mi SE 9.2 mph - N/A   Clear
3:55 PM 42.8 °F 38.6 °F 19.4 °F 39% 30.24 in 10.0 mi SSE 6.9 mph - N/A   Clear
4:15 PM 42.8 °F 37.0 °F 19.4 °F 39% 30.23 in 10.0 mi SSE 10.4 mph - N/A   Clear
4:35 PM 42.8 °F 37.0 °F 19.4 °F 39% 30.23 in 10.0 mi SSE 10.4 mph - N/A   Clear
5:15 PM 41.0 °F 38.0 °F 19.4 °F 42% 30.24 in 10.0 mi SSE 4.6 mph - N/A   Clear
5:35 PM 42.8 °F 39.3 °F 17.6 °F 36% 30.24 in 10.0 mi South 5.8 mph - N/A   Clear
5:55 PM 42.8 °F 38.6 °F 17.6 °F 36% 30.25 in 10.0 mi SSE 6.9 mph - N/A   Clear
6:15 PM 42.8 °F 38.0 °F 17.6 °F 36% 30.26 in 10.0 mi South 8.1 mph - N/A   Clear
6:35 PM 42.8 °F 38.0 °F 17.6 °F 36% 30.26 in 10.0 mi South 8.1 mph - N/A   Clear
6:55 PM 42.8 °F 38.0 °F 14.0 °F 31% 30.26 in 10.0 mi SSE 8.1 mph - N/A   Clear
7:15 PM 42.8 °F 38.0 °F 14.0 °F 31% 30.26 in 10.0 mi SSE 8.1 mph - N/A   Clear
7:35 PM 42.8 °F 36.2 °F 14.0 °F 31% 30.26 in 10.0 mi South 12.7 mph - N/A   Clear
7:55 PM 42.8 °F 37.0 °F 14.0 °F 31% 30.26 in 10.0 mi SSE 10.4 mph - N/A   Clear
8:15 PM 42.8 °F 37.0 °F 14.0 °F 31% 30.26 in 10.0 mi SSE 10.4 mph - N/A   Clear
8:35 PM 42.8 °F 38.0 °F 14.0 °F 31% 30.26 in 10.0 mi SSE 8.1 mph - N/A   Clear
9:15 PM 42.8 °F 38.6 °F 14.0 °F 31% 30.26 in 10.0 mi SSE 6.9 mph - N/A   Clear
9:35 PM 42.8 °F 38.0 °F 14.0 °F 31% 30.26 in 10.0 mi South 8.1 mph - N/A   Clear
9:55 PM 42.8 °F 38.0 °F 14.0 °F 31% 30.26 in 10.0 mi South 8.1 mph - N/A   Clear
10:15 PM 41.0 °F 38.0 °F 14.0 °F 33% 30.26 in 10.0 mi SSE 4.6 mph - N/A   Clear
10:35 PM 42.8 °F 40.1 °F 14.0 °F 31% 30.26 in 10.0 mi SSE 4.6 mph - N/A   Clear
10:55 PM 42.8 °F 38.6 °F 14.0 °F 31% 30.26 in 10.0 mi South 6.9 mph - N/A   Clear
11:15 PM 42.8 °F 38.6 °F 14.0 °F 31% 30.26 in 10.0 mi SSW 6.9 mph - N/A   Clear
11:35 PM 42.8 °F 39.3 °F 14.0 °F 31% 30.26 in 10.0 mi SW 5.8 mph - N/A   Clear
11:55 PM 44.6 °F 41.4 °F 12.2 °F 27% 30.26 in 10.0 mi WSW 5.8 mph - N/A   Scattered Clouds